Regional Weather Roundup
Issued by NWS

Home | Current Version | Previous Version | Graphics & Text | Print | Product List | Glossary On
Versions: 1 2 3 4 5 6 7 8 9 10 11 12 13 14 15 16 17 18 19 20 21 22 23 24 25 26 27 28 29 30 31 32 33 34 35 36 37 38 39 40 41 42 43 44 45 46 47 48 49 50
000
ASUS43 KIND 160209
RWRIN

WEATHER ROUNDUP FOR INDIANA
NATIONAL WEATHER SERVICE INDIANAPOLIS IN
1000 PM EDT MON SEP 15 2014

NOTE: "FAIR" INDICATES FEW OR NO CLOUDS BELOW 12,000 FEET WITH NO
SIGNIFICANT WEATHER AND/OR OBSTRUCTIONS TO VISIBILITY.

* - STATION DOES NOT REPORT WEATHER SUCH AS PRECIPITATION OR FOG.

+ - STATION NOT QUALITY CONTROLLED BY THE NATIONAL WEATHER SERVICE.
    USE DATA WITH CAUTION...ESPECIALLY DEWPOINT AND RELATIVE
    HUMIDITY OBSERVATIONS.

INZ001>003-010>013-019-020-160300-
NORTHWEST INDIANA

CITY           SKY/WX    TMP DP  RH WIND       PRES   REMARKS
GARY /AIRPORT/ CLOUDY    57  55  94 CALM      30.13R FOG
KNOX *+        CLOUDY    54  52  93 CALM      30.12R
LA PORTE +     CLOUDY    53  53 100 W5        30.13R FOG
MICHIGAN CITY+ CLOUDY    54  54 100 SW3       30.12R
MONTICELLO +   DRIZZLE   55  55  99 NE3       30.12S
RENSSELAER +   CLOUDY    54  54 100 N3        30.14R
VALPARAISO     CLOUDY    54  53  97 CALM      30.13R FOG

$$

LMZ046-743>745-160300-
SOUTHERN LAKE MICHIGAN

STATION/POSITION TIME  TEMP WIND        PRES
                       AIR  DIR/SP/G
                 (UTC) (F)  (DEG/KT/KT) (MB)
MICHIGAN CITY    0200   60  350/ 16/ 18   N/A

$$

INZ004-005-014>016-021>024-160300-
NORTH CENTRAL INDIANA

CITY           SKY/WX    TMP DP  RH WIND       PRES   REMARKS
GOSHEN         CLOUDY    55  53  93 SW3       30.11S FOG
LOGANSPORT +   DRIZZLE   54  54 100 CALM      30.13R
PERU/GRISSOM   DRIZZLE   55  55 100 N3        30.12R
ROCHESTER +    MOCLDY    55  55 100 CALM      30.13R FOG
SOUTH BEND     CLOUDY    55  53  93 SW3       30.12S
WARSAW +       CLOUDY    54  52  94 W3        30.12R

$$

INZ006>009-017-018-025>027-160300-
NORTHEAST INDIANA

CITY           SKY/WX    TMP DP  RH WIND       PRES   REMARKS
ANGOLA *+      CLOUDY    54  43  66 CALM      30.11R
AUBURN +       MOCLDY    54  52  94 W3        30.12R
FORT WAYNE     LGT RAIN  55  53  93 NW3       30.13R FOG
HUNTINGTON +   LGT RAIN  54  53  99 CALM      30.12R

$$

INZ028-029-035-036-043>045-051>053-160300-
WEST CENTRAL INDIANA

CITY           SKY/WX    TMP DP  RH WIND       PRES   REMARKS
GREENCASTLE +  CLOUDY    55  55 100 N3        30.11S FOG
LAFAYETTE      CLOUDY    56  55  97 CALM      30.12S
TERRE HAUTE    CLOUDY    57  56  96 N7        30.11R FOG

$$

INZ030>032-037>040-046>048-054>057-064-065-160300-
CENTRAL INDIANA

CITY           SKY/WX    TMP DP  RH WIND       PRES   REMARKS
CP ATTERBURY + DRIZZLE   59  55  88 N3        30.11R
COLUMBUS       CLOUDY    57  57 100 CALM      30.10R
FRANKFORT +    DRIZZLE  N/A N/A N/A CALM      30.13R
INDIANAPOLIS   LGT RAIN  57  55  93 N5        30.11R FOG
-EAGLE CREEK   LGT RAIN  57  54  89 N5        30.11R FOG
KOKOMO *+      CLOUDY    55  54  94 N5        30.13R
MARION +       CLOUDY    56  55  97 CALM      30.13R FOG
MT COMFORT *+  CLOUDY    57 N/A N/A N3        30.12S
SHELBYVILLE    LGT RAIN  59  56  89 N5        30.11R FOG
ZIONSVILLE +   DRIZZLE   56  53  89 CALM      30.13R

$$

INZ033-034-041-042-049-050-058-059-160300-
EAST CENTRAL INDIANA

CITY           SKY/WX    TMP DP  RH WIND       PRES   REMARKS
MUNCIE         LGT RAIN  56  54  93 NW3       30.12R FOG

$$

INZ060-061-067>069-081>083-085>088-160300-
SOUTHWEST INDIANA

CITY           SKY/WX    TMP DP  RH WIND       PRES   REMARKS
EVANSVILLE     CLOUDY    71  60  68 S7        30.06S
WASHINGTON +   RAIN      61  60  97 SE5       30.07R

$$

INZ062-063-066-070>080-084-089>092-160300-
SOUTH CENTRAL AND SOUTHEAST INDIANA

CITY           SKY/WX    TMP DP  RH WIND       PRES   REMARKS
BLOOMINGTON    CLOUDY    58  56  93 CALM      30.09R
SEYMOUR +      CLOUDY    61  59  94 CALM      30.08R

$$



USA.gov is the U.S. government's official web portal to all federal, state and local government web resources and services.